Showing default

GONETS M 18, 46487

Orbit data source: Space-Track

GONETS M 18, 46487 is a payload satellite owned by Gonets (CIS) in LEO that was launched on Mon, 28 Sep 2020 UTC via a SOYUZ-2-1B launch vehicle from the Plesetsk Missile And Space Complex (PKMTR). Payloads include a variety of satellites, spacecraft, and rockets equipped with specific instruments for various scientific and technological missions. These include communications satellites like Starlink; space stations such as the ISS; scientific satellites like the Hubble; Earth observation satellites from companies like Planet Labs, Umbra, and HawkEye 360; GPS; miniature CubeSats for education and research; and military/defense satellites.

Loading next visibility...
GONETS M 18 details
Identifier
46487, 2020-068B
Orbit
LEO
Last TLE update12 hours ago
Origin
Flag of CISGonets (CIS)
ManufacturerResehetnev ISS
MissionOperational Commercial Communications
Bus & MotorSTRELA-3M, Unknown motor
Mass225 kg wet, 225 kg dry
Launch date (UTC)
2020-09-28 (4 years ago)
Launch vehicle
SOYUZ-2-1B
Launch site
Plesetsk Missile And Space Complex (PKMTR)
Object type
Payload
Rocket body
Debris
Shape & HBRCyl + 1 Ant, 7 m
Radar Cross Section1.798 m², Large (>1 m²)

Expand to show TLE details & history

TLE from 12 hours ago
0 GONETS M 18
1 46487U 20068B   25024.10793039  .00000038  00000-0  20020-3 0  9998
2 46487  82.4952 303.4980 0021138  62.3163 298.0058 12.42875103196106
Epoch: 2025-01-24T02:35Z
Definitive object data (Epoch: 2025-01-24T02:35:25.185Z)
Latitude-0.00007°
Longitude140.96721°
Altitude1,489.351 km
Speed7.123 km/s
True Right ascension20h 13m 59s
True Declination0° 00' 00"
Sunlit
Object was in daylight at TLE epoch
Visualization TLE readout
Latitude82.37234°
Longitude-141.13976°
Altitude1,493.178 km
Speed7.131 km/s
Apparent Right ascension03h 30m 04s
Apparent Declination32° 45' 21"
Sunlit
Object is in daylight
Visualization observer readout
Local Sidereal Time15:55:28
Azimuth5.582° NNE
Elevation-17.091°
Doppler factor1
Orbital elements
Apogee altitude1,508.426 km
Perigee altitude1,475.155 km
Semi-major axis7,869.927 km
Eccentricity0.0021138
Inclination82.4952°
RAAN303.498°
Arg. of periapsis62.3163°
True anomaly297.79168°
Mean anomaly298.0058°
Eccentric anomaly297.89876°
Mean motion3.10876 °/min
BSTAR0.0002002
Orbital period115.8 mins
Loading maneuver chart data...
Loading historical data...
Loading historical data...
Loading historical data...
Loading historical data...
Loading historical data...
Loading historical data...
Loading historical data...

GONETS M 18 Visibility forecast

Observer location: undefined°, undefined

Span
Click to sort rows by Start time (UTC) header in descending order
Start Az.
Max El. time (UTC)
Max El. Az.
Max El.
End time (UTC)
End Az.
14 mins2025-01-24 18:08:15.514Z147.691° SSE2025-01-24 18:15:15.514Z90.559° ESE31.155°2025-01-24 18:22:15.514Z26.571° NE
15 mins2025-01-24 20:05:15.514Z217.247° SW2025-01-24 20:12:15.514Z286.476° WNW35.746°2025-01-24 20:20:15.514Z356.45° N
8 mins2025-01-25 04:21:15.514Z34.235° NE2025-01-25 04:25:15.514Z65.303° ENE16.511°2025-01-25 04:29:15.514Z94.991° ESE
15 mins2025-01-25 06:16:15.514Z353.833° N2025-01-25 06:23:15.514Z127.109° SE44.863°2025-01-25 06:31:15.514Z172.566° S
8 mins2025-01-25 08:15:15.514Z308.492° NW2025-01-25 08:18:15.514Z285.072° WNW17.319°2025-01-25 08:23:15.514Z247.378° WSW
|